Regional Weather Roundup
Issued by NWS

Home | Current Version | Previous Version | Graphics & Text | Print | Product List | Glossary On
Versions: 1 2 3 4 5 6 7 8 9 10 11 12 13 14 15 16 17 18 19 20 21 22 23 24 25 26 27 28 29 30 31 32 33 34 35 36 37 38 39 40 41 42 43 44 45 46 47 48 49 50
424
ASUS45 KCYS 260410
RWRWY

WYOMING REGIONAL WEATHER ROUNDUP
NATIONAL WEATHER SERVICE CHEYENNE WY
1000 PM MDT WED MAY 25 2016

NOTE:  "FAIR" INDICATES FEW OR NO CLOUDS BELOW 12,000 FEET
WITH NO SIGNIFICANT WEATHER AND/OR OBSTRUCTIONS TO VISIBILITY.

WYZ001-260500-
YELLOWSTONE NATIONAL PARK

CITY           SKY/WX    TMP DP  RH WIND       PRES   REMARKS
LK YELLOWSTONE   N/A     33  30  88 CALM      30.11R
W YELLOWSTONE  NOT AVBL

$$
WYZ002>013-054>058-071-098>099-260500-
NORTHERN WYOMING

CITY           SKY/WX    TMP DP  RH WIND       PRES   REMARKS
JACKSON        MOCLDY    43  39  87 NW5       30.10R
CODY           MOCLDY    54  36  50 W7        29.96R
GREYBULL       FAIR      53  49  86 CALM      29.93S
WORLAND        LGT RAIN  52  48  86 S8        29.95F
SHERIDAN       FAIR      43  41  93 SW8       29.90S
BUFFALO        FAIR      50  40  68 S9        29.96R
GILLETTE       MOCLDY    49  45  86 SE5       29.93F
HULETT         FAIR      46  45  93 SW3       29.94F
NEWCASTLE      FAIR      52  39  62 N7        29.94S

$$
WYZ014>020-022>026-101>103-260500-
CENTRAL WYOMING

CITY           SKY/WX    TMP DP  RH WIND       PRES   REMARKS
BIG PINEY      MOCLDY    41  35  79 N7        30.12R
PINEDALE       CLOUDY    39  37  93 W5        30.13R
DUBOIS         FAIR      39  32  75 NW10      30.07R WCI  32
LANDER         CLOUDY    54  29  38 N5        29.98R
RIVERTON       MOCLDY    53  33  46 NW16      30.00R
CASPER         MOCLDY    44  39  82 CALM      29.98R
DOUGLAS          N/A    N/A N/A N/A MISG      29.98S

$$
WYZ021-027>030-104>119-260500-
SOUTHERN WYOMING

CITY           SKY/WX    TMP DP  RH WIND       PRES   REMARKS
EVANSTON       FAIR      43  35  73 E8        30.11R
KEMMERER         N/A     43  34  70 CALM      30.12R
FORT BRIDGER   PTCLDY    43  43 100 S8        30.14S
ROCK SPRINGS   MOCLDY    45  34  65 SW15      30.10R
DIXON          FAIR      42  35  74 NE3       30.12R
RAWLINS        FAIR      48  31  51 W13       30.08R
SARATOGA       FAIR      43  32  65 W9        30.10R
LARAMIE        FAIR      41  31  67 SE6       30.08R
CHEYENNE       FAIR      52  34  50 N5        30.03R
TORRINGTON     FAIR      51  41  68 E8        29.97R
PINE BLUFFS    MOCLDY    52  43  71 E3        30.01R

$$




USA.gov is the U.S. government's official web portal to all federal, state and local government web resources and services.